Regional Weather Roundup
Issued by NWS Midland/Odessa, TX

Skip options and go directly to product.
Home | Oldest Version | Previous Version | Current Version | All | Text Only | Save Text | Print | Product List | Glossary Off

Skip product version selection by date and time.   

028
ASUS44 KMAF 230510
RWRMAF
MIDLAND AREA WEATHER ROUNDUP
NATIONAL WEATHER SERVICE MIDLAND TX
1200 AM CDT SAT AUG 23 2014

...IN SOUTHWEST TEXAS AND SOUTHEAST NEW MEXICO...

CITY           SKY/WX    TMP DP  RH WIND       PRES   REMARKS
ALPINE         MOCLDY    70  66  87 W3        30.18R
ANDREWS        MOCLDY    81  60  48 NW8       30.06R
ARTESIA        CLOUDY    77  61  57 S9        30.05S
BIG SPRING     PTCLDY    84  47  27 SE15      30.04R
CARLSBAD       CLOUDY    73  64  73 S5        30.03F
DRYDEN           N/A     89  41  18 SE12      29.98R
FORT STOCKTON  CLOUDY    78  63  59 NW5       30.03R
GUAD PASS      CLOUDY    70  57  63 SW7       30.19F
HOBBS          LGT RAIN  68  63  83 SE12      30.09S
MARFA          CLOUDY    66  59  77 W6G36     30.19R THUNDER
MIDLAND AIRPK  CLOUDY    84  51  32 SE9       30.03S
MIDLAND INTL   CLOUDY    83  52  34 SE9       30.03R
ODESSA         CLOUDY    84  52  33 S8        30.04R
PECOS          CLOUDY    74  66  77 CALM      30.00S
PRESIDIO       MOCLDY    75  70  83 NW7       30.03F
SEMINOLE       CLOUDY    76  62  62 W7        30.09R
SNYDER         CLEAR     81  52  36 SE12      30.02S
WINK           LGT RAIN  76  70  82 NE9       29.99F
$$
...OTHER STATIONS IN TEXAS...

CITY           SKY/WX    TMP DP  RH WIND       PRES   REMARKS
ABILENE        CLEAR     84  52  33 S12       30.00R
AMARILLO       PTCLDY    74  60  61 SW7       30.06R
AUSTIN         CLEAR     83  70  64 S13       30.00R
BROWNSVILLE    CLEAR     81  77  88 SE5       30.00F
CORPUS CHRISTI PTCLDY    81  74  79 SE9       29.99F
DALLAS FTW     CLEAR     87  66  49 S12       29.95F
DEL RIO        CLEAR     88  50  27 SE12      29.94R
EL PASO        MOCLDY    73  63  70 SW9       30.07F
HOUSTON INT    PTCLDY    81  74  79 S3        30.02F
LUBBOCK        PTCLDY    79  58  48 W7        30.06R
SAN ANGELO     CLEAR     80  53  39 SE8       30.00R
SAN ANTONIO    CLEAR     82  69  64 S17       30.03R
WACO           CLEAR     87  68  52 S16       29.97S
WICHITA FALLS  NOT AVBL
$$
...OTHER LOCATIONS IN NEW MEXICO...

CITY           SKY/WX    TMP DP  RH WIND       PRES   REMARKS
ALAMAGORDO     PTCLDY    64  63  94 CALM      30.13R
ALBUQUERQUE    PTCLDY    60  56  86 SW7       30.17R
CANNON AFB     MOCLDY    69  61  76 SW9       30.11R
CLOVIS           N/A     66  61  82 SE3       30.13F
HOLLOMAN AFB   MOCLDY    67  63  87 E6        30.09F
ROSWELL        CLOUDY    76  58  53 S7        30.06R
RUIDOSO        PTCLDY    57  52  82 SW8       30.27S
SANTA FE       PTCLDY    57  54  89 SW3       30.19F
TRUTH OR CONSE PTCLDY    65  59  81 NE8       30.14S
TUCUMCARI      CLOUDY    77  56  48 SW5       30.04R
$$

USA.gov is the U.S. government's official web portal to all federal, state and local government web resources and services.